Wind_Speed
9 9 10 9 10 11 7 5 3 4 4 5 5 6 6 7 7 8 9 9 10 10 10 10 8 7 7 6 6 5 4 4 4 4 3 3 2 2 2 2 2 2 2 3 3 3 3 3 3
8 8 8 9 10 8 5 3 4 5 5 6 6 7 8 8 8 9 9 10 10 10 10 10 9 8 6 6 5 5 4 3 3 3 3 2 2 2 2 2 2 2 2 2 2 3 3 3 4
7 7 7 9 9 7 5 5 6 7 6 6 6 7 8 8 8 9 9 9 10 10 9 9 8 8 7 6 5 4 4 3 3 3 3 2 1 1 1 1 1 1 1 2 2 2 3 3 3
7 7 9 8 6 4 5 7 7 7 6 6 7 7 8 8 8 9 9 9 10 10 9 9 9 8 7 7 6 4 4 3 3 2 2 1 1 0 1 0 1 1 1 1 1 2 2 2 3
7 7 5 3 2 4 6 8 8 8 7 7 8 8 8 8 8 8 9 9 9 9 9 10 9 9 8 7 5 4 3 3 3 2 2 2 2 1 1 1 1 1 1 1 1 1 2 2 2
7 6 3 3 3 5 6 7 7 7 8 7 8 8 8 8 8 9 9 9 9 9 9 9 9 9 9 7 6 5 4 3 3 3 2 2 2 2 1 1 1 1 1 1 2 1 1 2 2
6 6 4 3 6 7 7 8 9 8 8 8 8 9 9 9 9 10 10 10 10 9 8 8 9 9 9 8 6 6 5 4 4 3 3 2 2 2 1 1 2 2 1 2 3 3 2 2 2
6 5 3 3 7 9 8 9 10 9 9 10 10 10 9 9 9 9 10 10 10 9 9 9 9 10 9 9 7 7 6 5 5 4 4 3 3 2 2 2 2 3 3 3 3 4 4 3 3
7 6 4 3 8 9 8 8 10 11 10 11 11 10 10 10 10 9 10 11 11 9 9 8 9 10 10 9 8 7 6 6 5 5 4 4 4 3 3 3 3 3 3 4 4 5 4 4 4
8 6 4 5 8 9 8 8 10 12 11 11 11 11 11 11 10 10 10 11 11 10 10 9 9 10 10 10 9 8 7 6 6 5 5 4 4 4 5 5 4 4 4 4 5 6 5 5 5
10 9 8 9 11 10 9 10 11 12 12 12 12 11 11 11 11 10 10 11 12 12 11 10 11 10 10 11 10 9 8 7 7 6 6 6 5 5 5 5 5 6 6 5 5 6 6 6 6
11 11 10 11 12 12 11 11 13 13 11 12 14 13 12 11 11 11 11 12 12 12 12 12 12 11 11 11 11 10 9 9 8 7 7 7 7 7 6 6 6 6 6 6 7 6 6 7 7
12 13 12 12 12 13 13 14 14 14 13 14 14 12 12 11 12 12 12 12 13 12 13 12 12 12 12 11 11 11 10 10 8 7 7 7 8 8 8 7 7 7 7 8 7 7 7 8 8
13 14 12 12 14 14 13 14 14 14 15 15 14 14 13 13 13 13 13 13 14 14 13 13 13 12 12 12 11 12 12 11 9 8 8 8 8 8 9 9 8 8 7 8 8 8 8 9 9
15 14 13 13 15 15 14 15 14 14 15 15 15 14 14 14 14 14 14 14 15 14 14 14 14 13 13 13 13 13 12 12 10 9 10 9 9 10 9 9 8 8 9 9 9 9 9 9 10
14 15 15 14 15 15 14 15 14 14 16 17 15 14 14 15 15 15 16 16 16 17 17 16 15 15 14 14 14 14 13 12 11 10 10 10 10 10 10 10 10 10 10 10 10 10 11 11 11
14 14 13 13 15 14 14 15 15 17 17 17 17 16 16 16 16 17 18 18 17 18 18 17 16 16 15 16 15 16 15 14 12 11 11 11 11 11 11 11 11 11 12 11 12 12 12 12 12
13 12 13 14 15 15 14 15 17 17 18 18 18 17 17 17 17 17 19 19 18 18 19 18 18 17 16 16 16 16 15 14 13 13 13 12 13 13 13 13 13 13 13 12 13 12 11 11 11
15 14 14 15 15 15 15 16 17 17 19 20 20 18 18 18 18 19 19 20 19 19 19 19 19 18 18 18 18 17 16 16 15 14 14 14 14 15 15 15 15 15 15 14 14 13 12 12 12
17 16 15 15 16 15 16 17 18 18 19 21 20 19 20 19 20 20 21 22 22 20 20 20 20 20 20 19 19 18 18 17 16 16 16 16 16 17 17 17 17 16 16 16 16 15 14 14 14
17 17 17 16 16 15 16 18 18 18 19 21 22 21 21 20 20 21 21 22 22 22 22 22 21 21 21 21 20 20 19 18 18 17 17 17 18 18 18 18 18 18 18 17 17 17 16 16 15
17 17 18 18 17 16 16 17 19 21 21 21 22 22 22 21 21 21 21 22 22 22 23 23 22 22 22 22 22 21 21 20 20 19 18 18 19 19 19 19 19 19 20 19 19 19 18 18 17
17 16 17 17 16 16 16 18 20 22 22 22 22 22 23 24 24 22 22 23 23 22 23 24 24 24 24 24 23 23 22 22 21 20 20 20 20 20 20 20 19 20 20 20 21 20 20 19 18
16 16 16 15 16 19 17 19 21 23 23 23 22 23 24 25 25 24 22 23 24 24 23 24 24 24 25 25 25 24 24 23 22 22 22 22 22 22 22 21 19 20 21 20 20 20 21 20 19
16 15 15 15 17 19 17 20 23 23 24 23 23 25 26 25 24 23 24 25 25 25 26 26 26 25 26 26 26 25 25 24 24 24 24 24 24 24 23 22 21 21 20 20 20 20 20 20 20
16 16 16 15 15 16 17 20 21 22 23 23 24 25 25 25 24 24 24 25 26 26 27 27 27 27 27 27 27 26 26 26 26 26 25 25 25 25 24 23 22 22 21 21 21 21 21 22 22
16 17 16 17 17 16 17 19 23 24 24 24 25 24 25 26 25 25 26 27 28 28 27 28 28 28 28 28 28 28 28 28 28 27 27 27 26 26 25 25 24 23 23 23 23 23 22 22 22
16 16 17 18 17 17 17 19 22 24 23 24 25 25 26 27 27 28 28 29 30 30 29 29 29 29 29 28 28 29 29 29 28 28 28 28 28 27 26 26 26 25 24 24 23 23 22 22 22
16 17 18 18 18 18 18 20 23 26 26 27 26 26 28 28 28 29 30 30 31 30 30 30 30 30 29 28 28 29 29 28 28 29 29 29 29 28 28 27 27 26 25 24 24 24 24 24 23
17 18 19 20 20 20 20 24 26 26 27 28 29 29 28 29 29 30 30 30 30 31 30 30 30 29 29 29 30 30 29 29 29 29 29 29 29 29 29 29 28 27 26 26 25 25 25 25 23
Wind_Direction
99 93 87 80 73 66 57 55 35 358 1 15 25 22 22 16 18 22 22 22 25 22 19 18 19 17 14 13 16 21 33 43 49 53 57 81 98 110 119 130 137 137 136 143 156 174 181 183 193
102 95 92 72 56 61 43 30 13 347 353 4 16 12 10 16 18 16 19 18 19 17 15 17 18 17 14 11 12 16 22 37 50 52 49 74 106 115 129 138 144 144 142 147 163 180 188 196 206
108 104 87 55 37 34 12 355 353 346 349 357 0 4 3 10 13 14 14 13 14 14 14 17 17 15 10 3 2 7 12 23 36 46 49 67 86 124 151 150 149 148 157 162 179 190 195 205 215
121 104 80 56 35 17 337 332 334 336 340 344 346 353 1 6 9 13 12 10 13 13 16 17 14 7 2 358 360 2 0 360 13 28 29 37 33 265 215 176 120 127 139 168 201 202 203 210 216
132 111 80 51 28 311 311 319 328 330 330 334 334 341 352 356 360 2 4 7 11 11 15 14 10 5 357 350 350 356 353 354 358 356 344 348 339 306 268 229 169 137 140 139 216 199 214 228 241
145 120 101 301 273 286 302 312 317 312 320 332 331 333 342 345 349 353 356 358 2 4 5 7 4 2 357 350 349 351 346 351 2 0 345 329 321 314 286 260 249 226 247 262 259 244 238 243 246
161 147 158 259 271 277 292 297 302 309 312 326 331 329 335 337 340 342 344 346 352 355 356 360 0 2 2 359 358 355 346 342 348 351 339 320 305 298 303 289 261 242 257 266 257 251 236 234 248
198 179 172 243 263 270 282 292 299 303 308 318 321 325 329 332 336 336 338 339 343 346 349 351 356 1 5 6 6 0 352 342 340 341 335 318 293 279 271 280 265 254 247 248 252 254 241 240 250
225 197 183 249 266 273 280 289 296 299 303 308 314 317 320 323 328 328 332 336 336 337 344 349 352 356 358 358 358 351 347 343 340 335 327 317 300 287 283 280 264 261 252 242 242 251 247 247 253
236 229 204 241 253 262 273 282 291 299 300 303 308 312 317 319 320 321 327 332 335 334 334 340 343 348 348 349 350 349 340 336 331 324 324 320 310 304 301 295 284 288 282 262 245 247 252 251 254
226 231 226 234 246 254 262 276 285 290 292 294 298 306 312 318 321 325 329 330 331 331 331 333 337 337 337 338 338 341 339 336 327 314 315 313 316 315 312 305 300 295 291 274 259 254 254 255 256
236 236 235 238 243 252 261 270 275 283 287 293 296 305 308 313 318 321 323 324 326 328 330 329 331 332 330 330 332 333 332 330 326 319 317 316 314 316 313 308 303 295 288 281 273 262 257 254 258
241 243 241 243 248 253 260 265 269 275 282 286 291 298 304 309 311 316 319 320 322 323 324 325 324 324 325 325 328 331 330 327 320 320 316 310 308 311 311 305 298 293 292 287 282 276 271 264 264
243 247 253 249 251 255 261 267 272 275 278 284 287 296 301 304 308 311 315 317 319 318 320 322 318 317 318 321 324 324 324 323 319 321 319 314 309 308 306 306 300 290 290 292 293 286 279 272 270
241 247 253 257 256 260 261 262 266 274 279 282 283 291 297 300 305 308 310 313 315 315 314 319 318 315 312 314 315 317 318 318 319 316 312 311 312 310 309 305 299 293 287 286 286 289 281 278 275
242 246 251 258 266 264 263 265 267 270 274 281 282 287 291 293 300 304 307 308 311 314 314 315 315 314 313 311 312 312 314 315 316 315 310 306 305 305 306 308 299 294 290 287 284 284 276 274 275
249 252 256 260 269 264 260 263 265 267 271 277 282 286 288 291 296 300 304 307 308 310 312 311 310 309 310 311 310 309 309 310 310 310 308 306 303 301 302 301 296 291 290 289 287 285 278 272 269
246 248 252 255 259 260 259 260 265 272 273 273 275 279 283 289 293 294 298 301 303 305 308 308 309 306 307 308 307 306 306 306 305 304 302 301 299 297 296 296 294 290 290 290 289 286 279 274 274
237 238 245 248 248 253 256 258 261 266 271 273 271 272 281 286 290 290 292 295 297 300 303 304 304 303 302 303 303 301 302 301 300 300 299 295 294 294 292 293 291 289 288 286 287 284 280 277 281
236 239 244 249 249 248 252 255 262 268 272 276 278 278 280 286 289 291 293 295 297 297 298 300 299 300 299 299 299 300 298 296 295 299 299 297 294 292 289 287 288 288 286 284 284 283 283 281 278
237 238 239 244 251 251 256 257 260 269 273 274 277 281 283 287 288 289 292 294 296 296 295 295 295 296 296 296 297 297 297 295 293 294 295 294 292 290 287 285 286 286 283 282 281 281 280 278 276
243 241 239 240 246 256 264 264 262 264 271 274 278 282 284 283 285 289 293 294 292 292 292 291 292 293 293 293 293 293 292 292 291 292 294 293 292 290 289 287 287 287 284 279 278 279 276 275 275
240 243 246 246 248 248 251 261 264 269 271 273 278 282 283 285 286 288 290 291 289 289 289 289 290 291 290 289 288 290 291 290 291 292 295 297 297 292 291 290 288 288 286 280 277 275 273 273 275
242 244 249 251 251 252 249 254 259 260 268 274 281 284 284 285 285 288 287 287 287 288 287 288 289 289 289 287 286 285 286 286 288 291 293 294 295 294 294 292 290 290 288 284 279 272 272 273 274
243 241 245 254 254 258 255 253 257 263 268 271 278 283 284 284 285 286 286 286 286 287 287 288 288 288 287 285 284 283 282 283 286 287 289 291 292 293 293 290 290 290 289 286 280 274 274 275 275
244 240 236 245 261 268 267 259 264 267 267 270 275 280 283 284 286 286 287 287 286 286 286 286 287 286 284 283 283 281 280 280 282 284 286 288 289 289 291 289 288 287 287 285 280 275 273 274 274
238 237 233 240 245 258 263 264 267 272 273 275 278 280 285 285 287 288 288 288 287 288 287 286 285 283 282 280 280 279 278 277 278 280 283 285 287 288 289 288 286 286 284 282 280 276 272 273 274
236 241 239 234 245 252 261 266 268 271 274 275 277 281 283 284 285 288 288 288 288 288 287 286 284 282 281 278 277 278 277 276 276 277 279 282 284 285 286 286 284 284 284 282 279 277 273 273 274
245 240 240 240 238 248 257 264 268 274 277 279 279 281 284 284 286 287 288 289 290 289 287 285 284 283 280 277 276 277 277 276 276 277 277 279 281 283 284 284 283 283 282 280 278 276 273 273 272
247 247 246 245 245 244 252 263 266 272 274 277 278 280 283 285 287 287 288 289 289 288 288 286 284 283 281 278 278 277 275 276 276 276 277 278 279 280 281 281 281 281 279 276 274 273 272 271 271
Height
5907 5907 5908 5908 5907 5905 5905 5906 5906 5905 5904 5903 5902 5900 5899 5898 5898 5898 5894 5892 5891 5889 5888 5886 5885 5884 5883 5882 5881 5880 5879 5879 5878 5878 5877 5877 5877 5877 5877 5877 5877 5877 5878 5878 5879 5879 5880 5881 5881
5908 5909 5909 5908 5906 5906 5907 5907 5906 5906 5905 5904 5902 5901 5900 5898 5898 5896 5894 5893 5892 5890 5888 5887 5885 5884 5883 5882 5881 5880 5880 5879 5879 5878 5878 5878 5878 5878 5878 5877 5878 5878 5878 5878 5879 5880 5880 5881 5881
5909 5909 5910 5909 5908 5908 5908 5908 5908 5907 5905 5904 5903 5902 5901 5899 5898 5896 5895 5894 5892 5891 5889 5887 5885 5885 5883 5882 5881 5881 5880 5880 5879 5879 5878 5878 5878 5878 5878 5877 5878 5878 5878 5879 5879 5879 5880 5881 5881
5909 5910 5911 5911 5911 5911 5910 5909 5908 5907 5906 5905 5904 5902 5901 5900 5898 5897 5896 5894 5893 5891 5889 5888 5886 5885 5884 5882 5881 5881 5880 5880 5879 5879 5879 5878 5878 5878 5878 5878 5878 5878 5878 5879 5879 5879 5880 5880 5881
5909 5910 5911 5911 5913 5913 5912 5910 5909 5907 5906 5905 5904 5902 5901 5900 5899 5898 5896 5895 5894 5892 5890 5888 5887 5885 5884 5882 5881 5881 5880 5880 5879 5879 5879 5879 5879 5878 5878 5878 5878 5878 5878 5879 5879 5879 5880 5880 5881
5909 5909 5912 5912 5912 5913 5913 5911 5909 5908 5907 5905 5904 5903 5902 5901 5899 5898 5897 5895 5894 5893 5891 5889 5887 5885 5883 5881 5881 5880 5880 5880 5879 5879 5879 5879 5878 5878 5878 5878 5878 5878 5878 5879 5879 5879 5880 5880 5880
5909 5909 5910 5911 5912 5913 5912 5911 5910 5908 5907 5906 5904 5903 5902 5901 5899 5898 5897 5895 5894 5893 5891 5890 5888 5886 5883 5881 5880 5880 5880 5880 5880 5880 5880 5879 5879 5878 5878 5877 5877 5878 5878 5878 5878 5879 5879 5879 5879
5908 5909 5909 5911 5912 5912 5911 5910 5909 5907 5906 5906 5905 5903 5902 5901 5900 5899 5897 5896 5894 5893 5892 5890 5888 5887 5885 5883 5881 5881 5881 5881 5881 5880 5880 5879 5879 5878 5878 5877 5877 5877 5877 5877 5877 5878 5878 5879 5879
5906 5909 5910 5911 5912 5911 5910 5909 5908 5907 5906 5905 5905 5904 5902 5901 5900 5899 5897 5896 5894 5893 5892 5891 5889 5887 5886 5884 5883 5882 5881 5881 5881 5880 5880 5879 5878 5878 5877 5877 5876 5876 5876 5876 5876 5877 5877 5878 5878
5906 5907 5908 5910 5910 5910 5909 5909 5907 5906 5905 5904 5903 5903 5902 5901 5900 5899 5897 5896 5894 5893 5892 5891 5889 5888 5886 5885 5884 5882 5882 5881 5880 5880 5879 5879 5878 5877 5877 5877 5876 5876 5876 5875 5875 5876 5876 5877 5877
5905 5906 5907 5908 5909 5908 5908 5908 5907 5906 5905 5903 5902 5902 5901 5900 5899 5898 5897 5896 5894 5893 5892 5890 5889 5888 5886 5885 5884 5883 5882 5881 5880 5879 5879 5878 5878 5877 5877 5876 5876 5875 5875 5875 5874 5875 5875 5875 5876
5903 5903 5905 5906 5906 5907 5907 5907 5906 5905 5904 5902 5901 5900 5900 5900 5899 5898 5897 5896 5894 5893 5891 5890 5889 5887 5886 5885 5884 5883 5881 5880 5879 5879 5878 5877 5877 5877 5876 5876 5875 5874 5874 5874 5874 5874 5874 5874 5875
5901 5902 5903 5903 5904 5905 5905 5905 5904 5903 5903 5901 5900 5899 5899 5898 5898 5897 5896 5895 5894 5893 5891 5890 5888 5887 5886 5884 5883 5882 5881 5879 5878 5878 5877 5877 5876 5876 5875 5874 5874 5874 5873 5873 5873 5873 5873 5873 5873
5899 5899 5900 5901 5902 5902 5903 5903 5902 5901 5901 5900 5900 5899 5898 5897 5896 5896 5895 5894 5893 5892 5890 5889 5887 5886 5885 5884 5882 5881 5880 5879 5877 5877 5876 5876 5875 5874 5874 5873 5873 5873 5872 5872 5871 5872 5871 5871 5872
5895 5896 5898 5899 5900 5900 5900 5901 5900 5900 5899 5898 5898 5898 5897 5895 5895 5894 5894 5893 5892 5890 5889 5888 5886 5885 5884 5883 5882 5881 5879 5878 5877 5876 5875 5874 5873 5873 5872 5872 5871 5871 5871 5871 5870 5870 5870 5870 5870
5892 5893 5895 5896 5897 5897 5899 5898 5898 5897 5897 5896 5895 5895 5895 5894 5893 5892 5892 5891 5890 5889 5887 5886 5885 5884 5882 5881 5880 5879 5878 5876 5875 5874 5873 5873 5872 5871 5871 5870 5870 5869 5869 5869 5869 5869 5868 5868 5868
5888 5891 5892 5894 5894 5895 5896 5896 5895 5895 5895 5895 5894 5893 5892 5892 5891 5890 5890 5889 5888 5887 5885 5884 5883 5882 5881 5879 5878 5877 5876 5875 5874 5873 5872 5871 5870 5869 5869 5868 5868 5867 5867 5867 5866 5866 5866 5866 5866
5887 5889 5891 5892 5893 5893 5893 5894 5893 5892 5892 5892 5892 5890 5890 5890 5889 5889 5888 5886 5885 5884 5883 5882 5880 5879 5878 5877 5876 5875 5873 5872 5872 5871 5870 5869 5868 5868 5867 5866 5866 5865 5865 5865 5864 5864 5864 5863 5863
5885 5887 5889 5890 5889 5891 5891 5892 5890 5890 5889 5888 5887 5886 5887 5887 5887 5886 5885 5883 5882 5881 5880 5879 5878 5877 5876 5874 5873 5872 5871 5870 5869 5868 5867 5866 5866 5865 5864 5864 5863 5863 5862 5862 5862 5862 5861 5861 5861
5881 5883 5885 5886 5886 5887 5888 5888 5887 5886 5886 5885 5884 5883 5884 5882 5883 5883 5882 5880 5878 5877 5877 5875 5874 5873 5872 5871 5870 5869 5868 5867 5866 5865 5864 5864 5863 5862 5861 5861 5860 5860 5859 5859 5859 5859 5858 5858 5858
5877 5880 5882 5883 5883 5883 5884 5884 5883 5882 5882 5881 5881 5881 5880 5879 5878 5878 5877 5876 5874 5873 5873 5872 5871 5870 5869 5867 5866 5865 5864 5864 5863 5862 5861 5860 5859 5858 5857 5857 5857 5856 5856 5856 5855 5855 5855 5855 5855
5873 5875 5877 5878 5880 5880 5881 5881 5880 5878 5878 5878 5877 5877 5876 5874 5874 5873 5873 5872 5871 5869 5868 5867 5866 5866 5864 5863 5862 5862 5861 5860 5859 5858 5857 5856 5855 5854 5853 5853 5852 5852 5852 5851 5851 5851 5851 5851 5851
5869 5871 5872 5874 5875 5876 5877 5877 5877 5874 5873 5874 5874 5873 5872 5870 5870 5869 5868 5867 5866 5865 5864 5862 5862 5861 5860 5859 5858 5858 5857 5856 5855 5854 5853 5852 5851 5851 5850 5848 5848 5847 5847 5847 5847 5847 5847 5846 5847
5865 5867 5868 5869 5871 5872 5873 5874 5873 5870 5869 5870 5869 5868 5867 5866 5865 5863 5863 5862 5861 5860 5859 5858 5857 5856 5855 5854 5853 5852 5852 5851 5850 5849 5849 5848 5847 5846 5845 5844 5843 5843 5842 5842 5841 5841 5842 5842 5843
5861 5864 5865 5866 5867 5868 5869 5870 5869 5867 5865 5864 5864 5864 5863 5861 5859 5858 5857 5857 5856 5855 5854 5853 5851 5851 5849 5848 5847 5847 5846 5846 5845 5844 5843 5843 5842 5841 5840 5839 5839 5838 5837 5837 5837 5837 5837 5837 5838
5857 5860 5862 5864 5866 5866 5865 5865 5864 5862 5861 5860 5860 5859 5857 5855 5854 5852 5852 5851 5850 5849 5848 5846 5845 5844 5843 5842 5841 5841 5840 5840 5839 5839 5838 5837 5837 5836 5834 5834 5833 5833 5832 5832 5832 5832 5832 5833 5833
5853 5855 5858 5860 5860 5861 5861 5861 5859 5857 5857 5856 5855 5854 5852 5850 5848 5847 5846 5845 5844 5843 5841 5840 5839 5838 5837 5836 5835 5834 5834 5834 5833 5833 5832 5831 5830 5830 5829 5829 5828 5827 5827 5827 5826 5827 5827 5827 5827
5849 5851 5853 5854 5855 5856 5858 5856 5853 5851 5850 5850 5849 5848 5847 5844 5842 5841 5840 5839 5837 5836 5835 5833 5831 5830 5829 5828 5828 5827 5827 5827 5827 5826 5826 5825 5824 5824 5823 5823 5822 5822 5821 5821 5820 5820 5821 5821 5821
5845 5846 5847 5849 5850 5852 5853 5853 5849 5847 5845 5845 5843 5842 5841 5839 5837 5835 5834 5832 5830 5828 5827 5825 5824 5823 5822 5820 5821 5820 5820 5820 5819 5819 5819 5818 5817 5817 5816 5816 5816 5815 5815 5814 5814 5815 5815 5815 5815
5841 5841 5843 5844 5844 5846 5847 5847 5842 5842 5840 5839 5838 5836 5835 5833 5831 5829 5827 5825 5823 5820 5818 5817 5816 5815 5814 5813 5813 5813 5813 5812 5812 5812 5811 5811 5811 5810 5810 5809 5808 5808 5808 5808 5808 5808 5808 5808 5809